TimeEST,TemperatureF,Dew PointF,Humidity,Sea Level PressureIn,VisibilityMPH,Wind Direction,Wind SpeedMPH,Gust SpeedMPH,PrecipitationIn,Events,Conditions,WindDirDegrees,DateUTC
12:15 AM,35.6,32.0,87,30.39,10.0,Calm,Calm,-,N/A,,Clear,0,2012-11-11 05:15:00
12:35 AM,35.6,32.0,87,30.39,10.0,Calm,Calm,-,N/A,,Clear,0,2012-11-11 05:35:00
12:55 AM,35.6,32.0,87,30.39,10.0,Calm,Calm,-,N/A,,Clear,0,2012-11-11 05:55:00
1:15 AM,35.6,32.0,87,30.39,10.0,Calm,Calm,-,N/A,,Clear,0,2012-11-11 06:15:00
2:15 AM,33.8,32.0,93,30.39,10.0,Calm,Calm,-,N/A,,Clear,0,2012-11-11 07:15:00
2:35 AM,33.8,32.0,93,30.39,10.0,Calm,Calm,-,N/A,,Clear,0,2012-11-11 07:35:00
2:55 AM,33.8,32.0,93,30.40,10.0,Calm,Calm,-,N/A,,Clear,0,2012-11-11 07:55:00
3:15 AM,32.0,32.0,100,30.40,10.0,Calm,Calm,-,N/A,,Clear,0,2012-11-11 08:15:00
3:35 AM,32.0,32.0,100,30.40,10.0,Calm,Calm,-,N/A,,Clear,0,2012-11-11 08:35:00
3:55 AM,33.8,32.0,93,30.40,10.0,Calm,Calm,-,N/A,,Clear,0,2012-11-11 08:55:00
4:15 AM,32.0,30.2,93,30.41,10.0,Calm,Calm,-,N/A,,Clear,0,2012-11-11 09:15:00
4:35 AM,32.0,32.0,100,30.41,10.0,Calm,Calm,-,N/A,,Clear,0,2012-11-11 09:35:00
4:55 AM,32.0,30.2,93,30.41,10.0,Calm,Calm,-,N/A,,Clear,0,2012-11-11 09:55:00
5:15 AM,32.0,30.2,93,30.42,10.0,Calm,Calm,-,N/A,,Clear,0,2012-11-11 10:15:00
5:35 AM,32.0,32.0,100,30.42,10.0,Calm,Calm,-,N/A,,Clear,0,2012-11-11 10:35:00
5:55 AM,32.0,30.2,93,30.42,10.0,Calm,Calm,-,N/A,,Clear,0,2012-11-11 10:55:00
6:15 AM,32.0,30.2,93,30.43,10.0,Calm,Calm,-,N/A,,Clear,0,2012-11-11 11:15:00
6:55 AM,32.0,30.2,93,30.44,10.0,Calm,Calm,-,N/A,,Clear,0,2012-11-11 11:55:00
7:15 AM,32.0,30.2,93,30.45,10.0,Calm,Calm,-,N/A,,Clear,0,2012-11-11 12:15:00
7:35 AM,32.0,30.2,93,30.47,7.0,Calm,Calm,-,N/A,,Clear,0,2012-11-11 12:35:00
7:55 AM,33.8,32.0,93,30.48,10.0,Calm,Calm,-,N/A,,Clear,0,2012-11-11 12:55:00
8:15 AM,37.4,35.6,93,30.48,10.0,Calm,Calm,-,N/A,,Clear,0,2012-11-11 13:15:00
8:35 AM,41.0,35.6,81,30.48,10.0,Calm,Calm,-,N/A,,Clear,0,2012-11-11 13:35:00
8:55 AM,44.6,37.4,76,30.48,10.0,Calm,Calm,-,N/A,,Clear,0,2012-11-11 13:55:00
9:15 AM,48.2,37.4,66,30.48,10.0,Calm,Calm,-,N/A,,Clear,0,2012-11-11 14:15:00
11:15 AM,64.4,35.6,34,30.48,10.0,WSW,3.5,-,N/A,,Clear,250,2012-11-11 16:15:00
11:35 AM,68.0,37.4,33,30.47,10.0,Calm,Calm,-,N/A,,Clear,0,2012-11-11 16:35:00
11:55 AM,69.8,39.2,33,30.46,10.0,SW,3.5,-,N/A,,Clear,220,2012-11-11 16:55:00
12:15 PM,69.8,41.0,35,30.45,10.0,South,3.5,-,N/A,,Clear,190,2012-11-11 17:15:00
12:35 PM,71.6,42.8,35,30.44,10.0,West,4.6,-,N/A,,Clear,260,2012-11-11 17:35:00
12:55 PM,71.6,44.6,38,30.43,10.0,SSW,3.5,-,N/A,,Clear,210,2012-11-11 17:55:00
1:15 PM,71.6,44.6,38,30.43,10.0,SSW,5.8,-,N/A,,Clear,200,2012-11-11 18:15:00
1:35 PM,73.4,46.4,38,30.42,10.0,South,9.2,-,N/A,,Clear,170,2012-11-11 18:35:00
1:55 PM,73.4,46.4,38,30.41,10.0,SW,9.2,-,N/A,,Clear,220,2012-11-11 18:55:00
2:15 PM,73.4,46.4,38,30.41,10.0,South,6.9,-,N/A,,Clear,180,2012-11-11 19:15:00
2:35 PM,73.4,46.4,38,30.41,10.0,South,8.1,-,N/A,,Clear,180,2012-11-11 19:35:00
2:55 PM,73.4,46.4,38,30.40,10.0,South,8.1,-,N/A,,Clear,180,2012-11-11 19:55:00
3:15 PM,73.4,46.4,38,30.40,10.0,South,6.9,-,N/A,,Clear,190,2012-11-11 20:15:00
3:35 PM,73.4,48.2,41,30.40,10.0,SSW,11.5,-,N/A,,Scattered Clouds,210,2012-11-11 20:35:00
3:55 PM,73.4,48.2,41,30.41,10.0,SSW,6.9,-,N/A,,Scattered Clouds,200,2012-11-11 20:55:00
4:15 PM,71.6,50.0,46,30.41,10.0,South,8.1,-,N/A,,Mostly Cloudy,170,2012-11-11 21:15:00
4:35 PM,69.8,50.0,49,30.41,10.0,SSE,5.8,-,N/A,,Mostly Cloudy,160,2012-11-11 21:35:00
5:15 PM,68.0,50.0,52,30.40,10.0,Calm,Calm,-,N/A,,Clear,0,2012-11-11 22:15:00
5:35 PM,64.4,50.0,59,30.41,10.0,Calm,Calm,-,N/A,,Clear,0,2012-11-11 22:35:00
6:15 PM,60.8,50.0,68,30.42,10.0,Calm,Calm,-,N/A,,Clear,0,2012-11-11 23:15:00
6:35 PM,59.0,50.0,72,30.42,10.0,Calm,Calm,-,N/A,,Clear,0,2012-11-11 23:35:00
6:55 PM,55.4,50.0,82,30.43,10.0,Calm,Calm,-,N/A,,Clear,0,2012-11-11 23:55:00
7:15 PM,55.4,50.0,82,30.43,10.0,Calm,Calm,-,N/A,,Clear,0,2012-11-12 00:15:00
7:35 PM,55.4,50.0,82,30.43,10.0,Calm,Calm,-,N/A,,Clear,0,2012-11-12 00:35:00
8:15 PM,51.8,48.2,88,30.43,10.0,Calm,Calm,-,N/A,,Clear,0,2012-11-12 01:15:00
8:35 PM,51.8,46.4,82,30.44,10.0,Calm,Calm,-,N/A,,Clear,0,2012-11-12 01:35:00
8:55 PM,50.0,46.4,87,30.43,10.0,Calm,Calm,-,N/A,,Clear,0,2012-11-12 01:55:00
9:15 PM,50.0,46.4,87,30.44,10.0,Calm,Calm,-,N/A,,Clear,0,2012-11-12 02:15:00
9:35 PM,50.0,46.4,87,30.44,10.0,Calm,Calm,-,N/A,,Clear,0,2012-11-12 02:35:00
9:55 PM,50.0,46.4,87,30.44,10.0,Calm,Calm,-,N/A,,Clear,0,2012-11-12 02:55:00
10:15 PM,48.2,44.6,87,30.44,10.0,Calm,Calm,-,N/A,,Clear,0,2012-11-12 03:15:00
10:35 PM,48.2,46.4,93,30.44,10.0,Calm,Calm,-,N/A,,Clear,0,2012-11-12 03:35:00
10:55 PM,48.2,46.4,93,30.43,10.0,Calm,Calm,-,N/A,,Clear,0,2012-11-12 03:55:00
11:15 PM,48.2,44.6,87,30.43,10.0,Calm,Calm,-,N/A,,Clear,0,2012-11-12 04:15:00
11:35 PM,50.0,46.4,87,30.43,10.0,Calm,Calm,-,N/A,,Clear,0,2012-11-12 04:35:00
11:55 PM,50.0,46.4,87,30.43,10.0,Calm,Calm,-,N/A,,Clear,0,2012-11-12 04:55:00